Погода в Николаевском

Россия / Чувашская Республика     55°46′58″N   46°23′51″E
темп.,
°C
ветер,
м/с
пор.,
м/с
влажн.,
%
обл.,
%
осадки,
мм/ч
давл.,
гПа
погр.,
м
17 апреля, сб
сб1700:00+7всв5128456 0.0 1025304
03:00+5всв511795 0.0 1026244
06:00+4всв512745 0.0 1026291
09:00+9всв79585 0.0 1026518
12:00+12в78495 0.0 1026949
15:00+13всв67383 0.0 10251127
18:00+11всв59465 0.0 1025281
21:00+7всв512620 0.0 1024248
18 апреля, вс
вс1800:00+5всв512715 0.0 1025256
03:00+3всв411760 0.0 1025217
06:00+3всв512750 0.0 1024288
09:00+9всв69562 0.0 1024800
12:00+12в78435 0.0 10241362
15:00+13всв78415 0.0 10231674
18:00+11в5953100 0.0 1024372
21:00+6всв81372100 0.0 1026562
19 апреля, пн
пн1900:00+4всв71375100 0.0 1027500
03:00+3в61257100 0.0 1027462
06:00+3в6126567 0.0 1028540
09:00+5в8115122 0.0 1029881
12:00+7в910395 0.0 10291394
15:00+8в810357 0.0 10281584
18:00+6в7114457 0.0 10291182
21:00+3в6145021 0.0 1029535
20 апреля, вт
вт2000:00+2в6145488 0.0 1029428
03:00+2в7145673 0.0 1029451
06:00+1в715645 0.0 1029449
09:00+6вюв913517 0.0 1029892
12:00+9вюв912445 0.0 10281273
15:00+10вюв9124422 0.0 10261464
18:00+8вюв81351100 0.0 10251094
21:00+7вюв81653100 0.0 1024874
21 апреля, ср
ср2100:00+6юв9175496 0.0 1023837
03:00+5юв101954100 0.0 1021709
06:00+4юв101960100 0.4 1019742
09:00+3юв101985100 3.4 1019793
12:00+3юв101786100 0.8 1020723
15:00+5юв91585100 0.9 1020688
18:00+4ююв81588100 0.0 1021586
21:00+4ююв71491100 0.0 1022524